WX4SNO Weather Reports


time (UTC)temp
C
wind
direction
speed
KPH
gust
KPH
rain 1hr
cm
rain 24hr
cm
rain mn
cm
humidity
%
barometer
mb
20260508102024 5 328 0.0 0.0 0.00 0.00 0.00 75 1018.8
20260508101524 5 327 0.0 0.0 0.00 0.00 0.00 74 1018.7
20260508101003 5 327 0.0 0.0 0.00 0.00 0.00 74 1018.6
20260508100502 5 324 0.0 1.6 0.00 0.00 0.00 75 1018.5
20260508100024 5 354 0.0 1.6 0.00 0.00 0.00 75 1018.5
20260508095503 5 317 0.0 0.0 0.00 0.00 0.00 75 1018.5
20260508095023 5 316 0.0 0.0 0.00 0.00 0.00 75 1018.4
20260508094524 5 316 0.0 0.0 0.00 0.00 0.00 75 1018.4
20260508094024 5 315 0.0 1.6 0.00 0.00 0.00 74 1018.4
20260508093503 5 314 0.0 1.6 0.00 0.00 0.00 74 1018.4
20260508093024 5 315 0.0 0.0 0.00 0.00 0.00 74 1018.3
20260508092503 5 340 0.0 0.0 0.00 0.00 0.00 74 1018.3
20260508092004 5 340 0.0 0.0 0.00 0.00 0.00 74 1018.2
20260508091503 5 355 0.0 0.0 0.00 0.00 0.00 75 1018.3
20260508091003 5 306 0.0 0.0 0.00 0.00 0.00 75 1018.3
20260508090502 5 304 0.0 0.0 0.00 0.00 0.00 75 1018.4
20260508090003 5 304 0.0 0.0 0.00 0.00 0.00 75 1018.2
20260508085524 5 304 0.0 0.0 0.00 0.00 0.00 75 1018.2
20260508085045 5 300 0.0 0.0 0.00 0.00 0.00 75 1018.2
20260508084508 5 298 0.0 0.0 0.00 0.00 0.00 76 1018.3
20260508084006 5 272 0.0 0.0 0.00 0.00 0.00 76 1018.3
20260508083503 5 272 0.0 0.0 0.00 0.00 0.00 77 1018.3
20260508083003 5 272 0.0 0.0 0.00 0.00 0.00 76 1018.4
20260508082503 5 239 0.0 0.0 0.00 0.00 0.00 77 1018.4
20260508082024 5 238 0.0 0.0 0.00 0.00 0.00 77 1018.4
20260508081503 5 237 0.0 0.0 0.00 0.00 0.00 77 1018.3
20260508081003 5 237 0.0 0.0 0.00 0.00 0.00 77 1018.3
20260508080502 5 237 0.0 0.0 0.00 0.00 0.00 77 1018.3
20260508080003 5 237 0.0 0.0 0.00 0.00 0.00 76 1018.3
20260508075524 5 237 0.0 0.0 0.00 0.00 0.00 77 1018.2
20260508075003 5 237 0.0 0.0 0.00 0.00 0.00 77 1018.2
20260508074524 5 237 0.0 0.0 0.00 0.00 0.00 77 1018.2
20260508074002 5 237 0.0 0.0 0.00 0.00 0.00 76 1018.2
20260508073504 5 237 0.0 0.0 0.00 0.00 0.00 77 1018.2
20260508073024 5 237 0.0 0.0 0.00 0.00 0.00 77 1018.2
20260508072503 5 237 0.0 0.0 0.00 0.00 0.00 77 1018.1
20260508072003 5 237 0.0 0.0 0.00 0.03 0.00 78 1017.9
20260508071002 5 237 0.0 0.0 0.00 0.03 0.00 79 1017.8
20260508070503 5 237 0.0 0.0 0.00 0.03 0.00 79 1017.9
20260508070025 5 237 0.0 0.0 0.00 0.03 0.00 80 1017.8
20260508065502 5 237 0.0 0.0 0.00 0.03 0.00 80 1017.9
20260508065003 5 237 0.0 0.0 0.00 0.03 0.00 79 1017.8
20260508064503 5 237 0.0 0.0 0.00 0.03 0.00 79 1017.7
20260508064024 5 237 0.0 0.0 0.00 0.03 0.00 80 1017.6
20260508063502 5 237 0.0 0.0 0.00 0.03 0.00 79 1017.6
20260508063046 5 234 0.0 0.0 0.00 0.03 0.00 79 1017.6
20260508062503 6 234 0.0 0.0 0.00 0.03 0.00 80 1017.7
20260508062003 6 234 0.0 0.0 0.00 0.03 0.00 79 1017.7
20260508061502 6 5 0.0 0.0 0.00 0.03 0.00 79 1017.7
20260508061003 6 5 0.0 0.0 0.00 0.03 0.00 79 1017.7
20260508060503 6 5 0.0 0.0 0.00 0.03 0.00 79 1017.7
20260508060004 6 5 0.0 0.0 0.00 0.03 0.00 79 1017.6
20260508055504 6 5 0.0 0.0 0.00 0.03 0.00 79 1017.6
20260508055003 6 230 0.0 0.0 0.00 0.03 0.00 79 1017.7
20260508054525 6 230 0.0 0.0 0.00 0.03 0.00 79 1017.6
20260508054003 6 286 0.0 0.0 0.00 0.03 0.00 80 1017.6
20260508053502 6 67 0.0 0.0 0.00 0.03 0.00 79 1017.6
20260508053003 6 66 0.0 0.0 0.00 0.03 0.00 79 1017.5
20260508052503 6 65 0.0 0.0 0.00 0.03 0.00 79 1017.5
20260508052003 6 65 0.0 0.0 0.00 0.03 0.00 80 1017.3
20260508051503 6 124 0.0 0.0 0.00 0.03 0.00 80 1017.3
20260508051024 6 128 0.0 0.0 0.00 0.03 0.00 80 1017.3
20260508050503 6 128 0.0 0.0 0.00 0.03 0.00 80 1017.2
20260508050003 6 128 0.0 0.0 0.00 0.03 0.00 80 1017.1
20260508045502 6 128 0.0 0.0 0.00 0.03 0.00 80 1017.1
20260508045003 6 128 0.0 0.0 0.00 0.03 0.00 80 1017.0
20260508044503 6 128 0.0 0.0 0.00 0.03 0.00 80 1016.9
20260508044002 6 128 0.0 0.0 0.00 0.03 0.00 80 1016.9
20260508043524 6 156 0.0 0.0 0.00 0.03 0.00 80 1016.7
20260508043024 6 160 0.0 0.0 0.00 0.03 0.00 80 1016.7
20260508042524 6 159 0.0 0.0 0.00 0.03 0.00 80 1016.7
20260508042024 6 160 0.0 0.0 0.00 0.03 0.00 80 1016.7
20260508041504 6 50 0.0 0.0 0.00 0.03 0.00 80 1016.7
20260508041024 7 50 0.0 0.0 0.00 0.03 0.00 80 1016.7
20260508040524 7 49 0.0 0.0 0.00 0.03 0.00 80 1016.6
20260508040024 7 49 0.0 0.0 0.00 0.03 0.00 80 1016.5
20260508035503 7 29 0.0 0.0 0.00 0.61 0.00 80 1016.5
20260508035003 7 51 0.0 0.0 0.00 0.61 0.00 80 1016.4
20260508034504 7 97 0.0 0.0 0.00 0.66 0.05 80 1016.3
20260508034004 7 291 0.0 0.0 0.00 0.66 0.05 80 1016.1
20260508033503 7 277 0.0 0.0 0.00 0.66 0.05 80 1016.1
20260508033003 7 277 0.0 0.0 0.00 0.66 0.05 80 1016.2
20260508032503 7 317 0.0 0.0 0.00 0.66 0.05 80 1016.1
20260508032004 7 314 0.0 0.0 0.00 0.66 0.05 80 1016.2
20260508031504 7 74 0.0 0.0 0.00 0.66 0.05 80 1016.2
20260508031003 7 74 0.0 0.0 0.00 0.66 0.05 80 1016.2
20260508030003 7 139 0.0 1.6 0.00 0.66 0.05 80 1016.0
20260508025503 7 140 0.0 0.0 0.00 0.66 0.05 80 1016.0
20260508025003 7 140 0.0 0.0 0.00 0.66 0.05 80 1016.0
20260508024503 7 193 0.0 1.6 0.00 0.66 0.05 80 1015.9
20260508024003 7 84 0.0 1.6 0.00 0.66 0.05 80 1015.8
20260508023525 7 84 0.0 0.0 0.00 0.66 0.05 80 1015.7
20260508023003 7 17 0.0 0.0 0.00 0.66 0.05 80 1015.7
20260508022503 7 90 0.0 0.0 0.00 0.66 0.05 80 1015.6
20260508022024 7 76 0.0 0.0 0.00 0.66 0.05 80 1015.6
20260508021503 7 76 0.0 0.0 0.00 0.66 0.05 80 1015.5
20260508021003 7 75 0.0 0.0 0.00 0.66 0.05 80 1015.4
20260508020502 7 74 0.0 0.0 0.00 0.05 0.05 79 1015.4
20260508020003 7 355 0.0 0.0 0.00 0.18 0.05 79 1015.2
20260508015503 7 250 0.0 0.0 0.00 0.28 0.05 79 1015.1
20260508015023 7 255 0.0 1.6 0.00 0.36 0.05 79 1015.1
20260508014503 8 232 0.0 1.6 0.00 0.38 0.05 79 1014.9
20260508014003 8 331 0.0 0.0 0.00 0.38 0.05 79 1014.8
20260508013502 8 342 0.0 4.8 0.00 0.38 0.05 79 1014.7
20260508013003 8 333 0.0 4.8 0.00 0.38 0.05 79 1014.7
20260508012503 8 14 0.0 0.0 0.00 0.38 0.05 79 1014.6
20260508012003 8 11 0.0 0.0 0.00 0.38 0.05 79 1014.4
20260508011524 8 12 0.0 0.0 0.00 0.38 0.05 79 1014.3
20260508011003 8 10 0.0 0.0 0.00 0.38 0.05 79 1014.2
20260508010503 8 10 0.0 0.0 0.00 0.38 0.05 79 1014.2
20260508010002 8 162 0.0 0.0 0.00 0.38 0.05 79 1014.1
20260508005503 8 113 0.0 1.6 0.00 0.38 0.05 79 1014.1
20260508005024 8 108 0.0 1.6 0.00 0.38 0.05 78 1014.0
20260508004503 8 128 0.0 0.0 0.00 0.38 0.05 79 1013.9
20260508004004 8 126 0.0 0.0 0.00 0.38 0.05 79 1014.0
20260508003524 8 126 0.0 0.0 0.00 0.38 0.05 79 1014.1
20260508003003 8 69 0.0 1.6 0.00 0.38 0.05 79 1014.0
20260508002503 8 122 0.0 1.6 0.00 0.38 0.05 78 1013.9
20260508002002 8 169 0.0 0.0 0.00 0.38 0.05 79 1014.0
20260508001524 8 171 0.0 0.0 0.00 0.38 0.05 79 1014.1
20260508001003 8 172 0.0 0.0 0.00 0.38 0.05 79 1014.0
20260508000524 8 53 0.0 0.0 0.00 0.38 0.05 79 1014.1
20260508000003 9 38 0.0 0.0 0.00 0.38 0.05 78 1014.1
20260507235503 9 36 0.0 0.0 0.00 0.38 0.05 78 1014.0
20260507235003 9 13 0.0 0.0 0.00 0.38 0.05 77 1014.0
20260507234503 10 12 0.0 0.0 0.00 0.38 0.05 77 1014.0
20260507234003 10 15 0.0 0.0 0.00 0.38 0.05 76 1013.9
20260507233503 10 85 0.0 0.0 0.00 0.38 0.05 76 1013.9
20260507233003 10 84 0.0 0.0 0.00 0.38 0.05 76 1013.8
20260507232502 10 84 0.0 0.0 0.00 0.38 0.05 75 1013.6
20260507232003 10 128 0.0 0.0 0.00 0.38 0.05 74 1013.6
20260507231503 11 93 0.0 0.0 0.00 0.38 0.05 73 1013.5
20260507231003 11 106 0.0 1.6 0.00 0.38 0.05 72 1013.4
20260507230503 11 32 0.0 1.6 0.00 0.38 0.05 72 1013.3
20260507230003 11 5 0.0 0.0 0.00 0.38 0.05 71 1013.2
20260507225503 11 324 0.0 0.0 0.00 0.38 0.05 73 1013.2
20260507225003 11 40 0.0 0.0 0.00 0.38 0.05 73 1013.1
20260507224504 11 67 0.0 0.0 0.00 0.38 0.05 74 1013.1
20260507224024 11 56 0.0 0.0 0.00 0.38 0.05 73 1013.2
20260507223503 11 355 0.0 0.0 0.00 0.38 0.05 72 1013.1
20260507223003 11 292 0.0 1.6 0.00 0.38 0.05 70 1013.0
20260507222503 11 355 0.0 4.8 0.00 0.38 0.05 71 1013.0
20260507222004 11 9 0.0 4.8 0.00 0.38 0.05 70 1012.9
20260507221524 11 305 0.0 1.6 0.00 0.38 0.05 70 1012.8
20260507221003 11 93 0.0 1.6 0.00 0.38 0.05 69 1012.8
20260507220503 11 14 0.0 1.6 0.00 0.38 0.05 69 1012.7
20260507220024 12 336 0.0 0.0 0.00 0.38 0.05 70 1012.6
20260507215524 12 5 0.0 0.0 0.00 0.38 0.05 71 1012.6
20260507215002 12 299 0.0 1.6 0.00 0.38 0.05 72 1012.4
20260507214503 12 28 0.0 1.6 0.00 0.38 0.05 70 1012.5
20260507214003 12 292 0.0 0.0 0.00 0.38 0.05 70 1012.5
20260507213505 12 186 0.0 0.0 0.00 0.38 0.05 71 1012.3
20260507213024 12 16 0.0 0.0 0.00 0.38 0.05 71 1012.3
20260507212502 12 330 0.0 0.0 0.00 0.38 0.05 74 1012.3
20260507212003 11 39 0.0 0.0 0.00 0.38 0.05 75 1012.3
20260507211503 11 123 0.0 0.0 0.00 0.38 0.05 76 1012.2
20260507211024 11 173 0.0 0.0 0.00 0.38 0.05 74 1012.3
20260507210503 11 298 0.0 0.0 0.00 0.38 0.05 74 1012.1
20260507210003 12 28 0.0 0.0 0.00 0.38 0.05 75 1012.2
20260507205503 12 342 0.0 0.0 0.00 0.38 0.05 74 1012.0
20260507205045 12 66 0.0 0.0 0.00 0.38 0.05 75 1011.9
20260507204502 12 42 0.0 0.0 0.00 0.38 0.05 74 1011.9
20260507204024 12 48 0.0 1.6 0.00 0.38 0.05 75 1011.6
20260507203503 12 48 0.0 1.6 0.00 0.38 0.05 75 1011.7
20260507203002 13 355 0.0 0.0 0.00 0.38 0.05 74 1011.7
20260507202503 13 11 0.0 0.0 0.00 0.38 0.05 75 1011.8
20260507201524 13 15 0.0 0.0 0.00 0.38 0.05 74 1011.6
20260507201003 13 347 0.0 0.0 0.00 0.38 0.05 74 1011.6
20260507200503 13 11 0.0 0.0 0.00 0.38 0.05 75 1011.6
20260507200003 13 315 0.0 0.0 0.00 0.38 0.05 74 1011.7
20260507195524 13 349 0.0 0.0 0.00 0.38 0.05 75 1011.7
20260507195003 13 347 0.0 0.0 0.00 0.38 0.05 75 1011.8
20260507194503 13 13 0.0 1.6 0.00 0.38 0.05 75 1011.9
20260507194024 13 5 0.0 1.6 0.00 0.38 0.05 75 1012.1
20260507193503 12 180 0.0 1.6 0.00 0.38 0.05 77 1012.1
20260507193003 12 325 0.0 1.6 0.00 0.38 0.05 77 1012.2
20260507192524 12 11 0.0 0.0 0.00 0.38 0.05 78 1012.2
20260507192003 12 360 0.0 1.6 0.00 0.38 0.05 78 1012.3
20260507191503 12 13 0.0 1.6 0.00 0.38 0.05 79 1012.5
20260507191045 12 40 0.0 0.0 0.00 0.38 0.05 78 1012.4
20260507190504 11 36 0.0 0.0 0.00 0.38 0.05 78 1012.5
20260507190004 11 36 0.0 0.0 0.03 0.38 0.05 79 1012.6
20260507185503 11 41 0.0 0.0 0.03 0.38 0.05 79 1012.8
20260507185023 11 40 0.0 0.0 0.03 0.38 0.05 79 1012.8
20260507184503 11 41 0.0 0.0 0.03 0.38 0.05 79 1012.8
20260507184003 11 317 0.0 0.0 0.03 0.38 0.05 78 1012.8
20260507183502 11 5 0.0 0.0 0.03 0.38 0.05 77 1012.8
20260507183024 11 10 0.0 0.0 0.00 0.36 0.03 77 1012.9
20260507182503 11 51 0.0 0.0 0.00 0.36 0.03 77 1012.7
20260507182003 11 36 0.0 0.0 0.00 0.36 0.03 77 1012.8
20260507181502 11 5 0.0 0.0 0.00 0.36 0.03 78 1012.7
20260507181003 11 36 0.0 0.0 0.00 0.36 0.03 78 1012.6
20260507180503 11 177 0.0 0.0 0.00 0.36 0.03 77 1012.7
20260507180002 11 21 0.0 0.0 0.00 0.36 0.03 79 1012.7
20260507175524 11 31 0.0 0.0 0.00 0.36 0.03 78 1012.7
20260507175024 11 5 0.0 0.0 0.00 0.36 0.03 79 1012.7
20260507174503 10 49 0.0 0.0 0.00 0.36 0.03 79 1012.7
20260507174003 10 40 0.0 0.0 0.00 0.36 0.03 79 1012.7
20260507173503 10 15 0.0 1.6 0.00 0.36 0.03 79 1012.8
20260507173003 10 16 0.0 1.6 0.00 0.36 0.03 79 1012.9
20260507172503 10 355 0.0 0.0 0.00 0.36 0.03 79 1013.0
20260507172002 10 355 0.0 0.0 0.00 0.36 0.03 79 1012.8
20260507171503 10 19 0.0 0.0 0.00 0.36 0.03 79 1012.9
20260507171003 10 19 0.0 0.0 0.00 0.36 0.03 79 1013.0
20260507170523 10 40 0.0 0.0 0.00 0.36 0.03 79 1012.9
20260507170004 10 5 0.0 0.0 0.00 0.36 0.03 79 1012.9
20260507165502 10 14 0.0 1.6 0.00 0.36 0.03 79 1012.9
20260507165004 10 35 0.0 1.6 0.00 0.38 0.03 79 1012.9
20260507164503 10 5 0.0 0.0 0.00 0.38 0.03 79 1013.0
20260507164045 10 355 0.0 0.0 0.00 0.38 0.03 79 1012.9
20260507163504 10 31 0.0 0.0 0.00 0.38 0.03 79 1013.0
20260507163003 10 31 0.0 0.0 0.00 0.38 0.03 79 1013.0
20260507162503 10 19 0.0 0.0 0.00 0.38 0.03 79 1013.0
20260507162003 10 29 0.0 0.0 0.00 0.38 0.03 78 1012.9
20260507161503 10 37 0.0 0.0 0.00 0.38 0.03 79 1013.0
20260507161003 10 37 0.0 0.0 0.00 0.38 0.03 78 1013.0
20260507160504 10 43 0.0 0.0 0.00 0.38 0.03 78 1013.1
20260507160004 10 355 0.0 0.0 0.00 0.38 0.03 78 1013.1
20260507155503 10 12 0.0 0.0 0.00 0.38 0.03 78 1013.0
20260507155003 10 19 0.0 0.0 0.00 0.38 0.03 77 1013.1
20260507154503 10 5 0.0 0.0 0.00 0.38 0.03 77 1013.1
20260507154003 10 5 0.0 0.0 0.00 0.38 0.03 76 1013.2
20260507153502 9 9 0.0 0.0 0.00 0.38 0.03 77 1013.2
20260507153024 9 12 0.0 0.0 0.00 0.38 0.03 75 1013.1
20260507152503 9 5 0.0 0.0 0.00 0.38 0.03 74 1013.2
20260507152003 9 5 0.0 0.0 0.00 0.38 0.03 73 1013.3
20260507151523 9 339 0.0 0.0 0.00 0.38 0.03 72 1013.5
20260507151003 9 339 0.0 0.0 0.00 0.38 0.03 71 1013.5
20260507150503 9 287 0.0 0.0 0.00 0.38 0.03 68 1013.4
20260507150003 9 346 0.0 0.0 0.00 0.38 0.03 66 1013.4
20260507145502 9 346 0.0 0.0 0.00 0.38 0.03 63 1013.4
20260507145004 9 33 0.0 0.0 0.00 0.38 0.03 59 1013.3
20260507144503 9 26 0.0 0.0 0.00 0.38 0.03 57 1013.3
20260507144002 9 23 0.0 0.0 0.00 0.38 0.03 56 1013.2
20260507143503 8 317 0.0 0.0 0.00 0.38 0.03 53 1013.2
20260507143003 8 5 0.0 0.0 0.00 0.38 0.03 53 1013.4
20260507142502 8 5 0.0 0.0 0.00 0.38 0.03 49 1013.2
20260507142024 8 5 0.0 0.0 0.00 0.38 0.03 47 1013.2
20260507141524 8 5 0.0 0.0 0.00 0.38 0.03 47 1013.2
20260507141003 8 5 0.0 0.0 0.00 0.38 0.03 46 1013.3
20260507140503 8 212 0.0 0.0 0.00 0.38 0.03 43 1013.2
20260507140003 8 5 0.0 0.0 0.00 0.38 0.03 41 1013.2
20260507135524 9 338 0.0 0.0 0.00 0.38 0.03 38 1013.3
20260507135003 9 328 0.0 0.0 0.00 0.41 0.03 35 1013.3
20260507134502 9 5 0.0 0.0 0.00 0.41 0.03 33 1013.2
20260507134004 9 15 0.0 0.0 0.00 0.41 0.03 34 1013.0
20260507133503 9 46 0.0 0.0 0.00 0.43 0.03 34 1012.9
20260507133004 9 21 0.0 0.0 0.00 0.46 0.03 33 1013.1
20260507132503 9 20 0.0 0.0 0.00 0.48 0.03 32 1013.6
20260507132004 9 19 0.0 0.0 0.00 0.51 0.03 32 1013.6
20260507131503 9 19 0.0 0.0 0.00 0.51 0.03 32 1013.6
20260507131003 9 19 0.0 0.0 0.00 0.56 0.03 31 1013.5
20260507130502 9 19 0.0 0.0 0.00 0.58 0.03 31 1013.3
20260507130003 9 19 0.0 0.0 0.00 0.58 0.03 31 1013.5
20260507125503 9 28 0.0 0.0 0.00 0.58 0.03 30 1013.4
20260507125003 9 28 0.0 0.0 0.00 0.58 0.03 31 1013.7
20260507124525 9 27 0.0 0.0 0.00 0.58 0.03 31 1014.0
20260507124003 9 27 0.0 0.0 0.00 0.61 0.03 31 1013.7
20260507123504 9 27 0.0 0.0 0.00 0.61 0.03 31 1013.5
20260507123003 9 27 0.0 0.0 0.00 0.64 0.03 32 1013.6
20260507122523 9 28 0.0 0.0 0.00 0.64 0.03 32 1013.6
20260507122004 9 28 0.0 0.0 0.00 0.64 0.03 32 1013.5
20260507121504 9 28 0.0 0.0 0.00 0.64 0.03 33 1013.5
20260507121009 9 22 0.0 0.0 0.00 0.64 0.03 33 1013.6
20260507120503 9 22 0.0 0.0 0.00 0.64 0.03 33 1013.4
20260507120003 9 51 0.0 0.0 0.00 0.64 0.03 32 1013.4
20260507115524 9 52 0.0 0.0 0.00 0.64 0.03 32 1013.3
20260507115003 9 67 0.0 0.0 0.00 0.64 0.03 32 1013.0
20260507114503 9 67 0.0 0.0 0.00 0.64 0.03 33 1013.2
20260507114003 9 67 0.0 0.0 0.00 0.64 0.03 33 1013.1
20260507113508 9 67 0.0 0.0 0.00 0.64 0.03 34 1012.9
20260507113003 9 67 0.0 0.0 0.00 0.64 0.03 34 1013.1
20260507112503 10 67 0.0 0.0 0.00 0.64 0.03 34 1013.1
20260507112003 10 69 0.0 0.0 0.00 0.64 0.03 34 1013.3
20260507111504 10 69 0.0 0.0 0.00 0.64 0.03 34 1013.2
20260507111002 10 69 0.0 0.0 0.00 0.64 0.03 34 1013.1
20260507110503 10 69 0.0 0.0 0.00 0.64 0.03 34 1012.8
20260507110006 10 69 0.0 0.0 0.00 0.64 0.03 32 1012.8
20260507105503 10 69 0.0 0.0 0.00 0.64 0.03 32 1012.5
20260507105004 10 80 0.0 0.0 0.00 0.64 0.03 32 1012.8
20260507104526 10 80 0.0 0.0 0.00 0.64 0.03 32 1012.4
20260507104003 10 80 0.0 0.0 0.00 0.64 0.03 32 1012.3
20260507103503 10 80 0.0 0.0 0.00 0.64 0.03 33 1012.3
20260507103003 10 80 0.0 0.0 0.00 0.64 0.03 34 1012.2
20260507102503 10 80 0.0 0.0 0.00 0.64 0.03 35 1012.4